Terminal Aerodrome Forecast
Issued by NWS

Home | Current Version | Previous Version | Text Only | Print | Product List | Glossary On
Versions: 1 2 3 4 5 6 7 8 9 10 11 12 13 14 15
000
FTUS44 KMOB 302300 RRA
TAFBFM
TAF
KBFM 302343Z 3100/3124 36007KT P6SM SKC
     FM310200 VRB03KT P6SM SKC
     FM311200 35006KT P6SM SKC=

USA.gov is the U.S. government's official web portal to all federal, state and local government web resources and services.